When you browse on this site, cookies collect data to enhance your experience and personalize the content and advertising you see.
Visit our Privacy Policy to learn more. By continuing to use the site, you agree to this use of cookies and data.
  • In Romania
  • List of Countries
  • For 7 days
  • Water Temperature
  • Satellite Maps
  • Weather Map
  • Weather Widgets
  • user-avatar
    Login

    Hourly Weather Zagorskiy

    Today, 21 March, Thursday

    Time Temperature Precipitation Wind Pressure Humidity
    00:00 +5°C° 0 mm 2 mps 736 mmHg 84%
    01:00 +5°C° 0 mm 2 mps 736 mmHg 85%
    02:00 +4°C° 0 mm 2 mps 736 mmHg 86%
    03:00 +3°C° 0 mm 3 mps 735 mmHg 85%
    04:00 +4°C° 0 mm 2 mps 735 mmHg 86%
    05:00 +3°C° 0 mm 2 mps 736 mmHg 86%
    06:00 +4°C° 0 mm 1 mps 736 mmHg 86%
    07:00 +6°C° 0 mm 1 mps 736 mmHg 79%
    08:00 +8°C° 0 mm 1 mps 736 mmHg 72%
    09:00 +9°C° 0 mm 1 mps 736 mmHg 65%
    10:00 +11°C° 0 mm 1 mps 736 mmHg 60%
    11:00 +12°C° 0 mm 2 mps 736 mmHg 56%
    12:00 +14°C° 0 mm 2 mps 736 mmHg 52%
    13:00 +13°C° 0 mm 3 mps 736 mmHg 50%
    14:00 +14°C° 0 mm 4 mps 735 mmHg 48%
    15:00 +14°C° 0 mm 4 mps 735 mmHg 46%
    16:00 +14°C° 0 mm 4 mps 735 mmHg 49%
    17:00 +13°C° 0 mm 4 mps 735 mmHg 53%
    18:00 +12°C° 0 mm 4 mps 735 mmHg 56%
    19:00 +11°C° 0 mm 4 mps 735 mmHg 61%
    20:00 +10°C° 0 mm 4 mps 736 mmHg 65%
    21:00 +8°C° 0 mm 4 mps 736 mmHg 70%
    22:00 +8°C° 0 mm 4 mps 736 mmHg 71%
    23:00 +7°C° 0 mm 4 mps 736 mmHg 72%

    Tomorrow, 22 March, Friday

    Time Temperature Precipitation Wind Pressure Humidity
    00:00 +7°C° 0 mm 4 mps 736 mmHg 73%
    01:00 +7°C° 0 mm 4 mps 736 mmHg 74%
    02:00 +6°C° 0 mm 4 mps 736 mmHg 75%
    03:00 +6°C° 0 mm 5 mps 736 mmHg 76%
    04:00 +5°C° 0 mm 5 mps 736 mmHg 77%
    05:00 +5°C° 0 mm 5 mps 736 mmHg 78%
    06:00 +5°C° 0 mm 5 mps 736 mmHg 79%
    07:00 +4°C° 0.1 mm 6 mps 736 mmHg 74%
    08:00 +4°C° 0.1 mm 6 mps 736 mmHg 69%
    09:00 +5°C° 0.1 mm 6 mps 736 mmHg 64%
    10:00 +5°C° 0.3 mm 6 mps 736 mmHg 63%
    11:00 +5°C° 0.3 mm 6 mps 736 mmHg 61%
    12:00 +5°C° 0.3 mm 6 mps 735 mmHg 59%
    13:00 +7°C° 0.3 mm 6 mps 735 mmHg 56%
    14:00 +8°C° 0.3 mm 6 mps 735 mmHg 52%
    15:00 +8°C° 0.3 mm 6 mps 735 mmHg 49%
    16:00 +8°C° 0 mm 5 mps 735 mmHg 52%
    17:00 +7°C° 0 mm 4 mps 734 mmHg 54%
    18:00 +8°C° 0 mm 3 mps 734 mmHg 56%
    19:00 +7°C° 0 mm 3 mps 734 mmHg 60%
    20:00 +5°C° 0 mm 3 mps 734 mmHg 63%
    21:00 +6°C° 0 mm 2 mps 735 mmHg 67%
    22:00 +5°C° 0 mm 2 mps 734 mmHg 70%
    23:00 +5°C° 0 mm 2 mps 734 mmHg 73%

    Day after tomorrow, 23 March, Saturday

    Time Temperature Precipitation Wind Pressure Humidity
    00:00 +5°C° 0 mm 2 mps 734 mmHg 76%
    01:00 +5°C° 0 mm 2 mps 733 mmHg 77%
    02:00 +4°C° 0 mm 2 mps 732 mmHg 79%
    03:00 +4°C° 0 mm 2 mps 732 mmHg 81%
    04:00 +4°C° 0 mm 2 mps 731 mmHg 80%
    05:00 +4°C° 0 mm 2 mps 731 mmHg 79%
    06:00 +4°C° 0 mm 2 mps 730 mmHg 79%
    07:00 +4°C° 0 mm 3 mps 730 mmHg 74%
    08:00 +5°C° 0 mm 3 mps 730 mmHg 70%
    09:00 +7°C° 0 mm 3 mps 730 mmHg 66%
    10:00 +8°C° 0 mm 3 mps 730 mmHg 62%
    11:00 +9°C° 0 mm 3 mps 729 mmHg 58%
    12:00 +10°C° 0 mm 3 mps 729 mmHg 53%
    13:00 +10°C° 0.3 mm 4 mps 729 mmHg 56%
    14:00 +8°C° 0.3 mm 4 mps 729 mmHg 59%
    15:00 +8°C° 0.3 mm 4 mps 728 mmHg 62%
    16:00 +6°C° 2.9 mm 4 mps 729 mmHg 70%
    17:00 +3°C° 2.9 mm 5 mps 729 mmHg 78%
    18:00 +1°C° 2.9 mm 5 mps 729 mmHg 87%
    19:00 +1°C° 1.2 mm 4 mps 730 mmHg 89%
    20:00 +1°C° 1.2 mm 3 mps 730 mmHg 92%
    21:00 +1°C° 1.2 mm 3 mps 731 mmHg 95%
    22:00 +2°C° 0.7 mm 2 mps 731 mmHg 95%
    23:00 +1°C° 0.7 mm 2 mps 731 mmHg 96%

    24 March, Sunday

    Time Temperature Precipitation Wind Pressure Humidity
    00:00 +2°C° 0.7 mm 1 mps 732 mmHg 97%
    01:00 +2°C° 0.4 mm 1 mps 732 mmHg 97%
    02:00 +2°C° 0.4 mm 1 mps 732 mmHg 96%
    03:00 +2°C° 0.4 mm 1 mps 732 mmHg 96%
    04:00 +2°C° 0.1 mm 1 mps 732 mmHg 95%
    05:00 +1°C° 0.1 mm 1 mps 733 mmHg 95%
    06:00 +1°C° 0.1 mm 1 mps 733 mmHg 95%
    07:00 +2°C° 0.1 mm 1 mps 733 mmHg 95%
    08:00 +1°C° 0.1 mm 2 mps 733 mmHg 94%
    09:00 +1°C° 0.1 mm 2 mps 733 mmHg 94%
    10:00 +2°C° 0.1 mm 2 mps 733 mmHg 90%
    11:00 +2°C° 0.1 mm 2 mps 733 mmHg 86%
    12:00 +3°C° 0.1 mm 2 mps 733 mmHg 82%
    13:00 +4°C° 0 mm 2 mps 733 mmHg 76%
    14:00 +4°C° 0 mm 2 mps 733 mmHg 69%
    15:00 +5°C° 0 mm 2 mps 733 mmHg 63%
    16:00 +4°C° 0 mm 2 mps 733 mmHg 65%
    17:00 +4°C° 0 mm 2 mps 733 mmHg 67%
    18:00 +4°C° 0 mm 2 mps 733 mmHg 70%
    19:00 +3°C° 0 mm 2 mps 733 mmHg 71%
    20:00 +3°C° 0 mm 2 mps 734 mmHg 72%
    21:00 +2°C° 0 mm 2 mps 734 mmHg 73%
    22:00 +1°C° 0 mm 3 mps 734 mmHg 74%
    23:00 0°C° 0 mm 3 mps 734 mmHg 74%

    25 March, Monday

    Time Temperature Precipitation Wind Pressure Humidity
    00:00 0°C° 0 mm 3 mps 734 mmHg 74%
    01:00 -1°C° 0 mm 3 mps 734 mmHg 74%
    02:00 -1°C° 0 mm 3 mps 734 mmHg 74%
    03:00 -1°C° 0 mm 2 mps 734 mmHg 75%
    04:00 -1°C° 0 mm 2 mps 734 mmHg 74%
    05:00 -1°C° 0 mm 2 mps 734 mmHg 74%
    06:00 -1°C° 0 mm 2 mps 735 mmHg 73%
    07:00 +1°C° 0 mm 2 mps 734 mmHg 68%
    08:00 +3°C° 0 mm 2 mps 734 mmHg 62%
    09:00 +3°C° 0 mm 3 mps 734 mmHg 57%
    10:00 +4°C° 0 mm 3 mps 734 mmHg 54%
    11:00 +5°C° 0 mm 3 mps 734 mmHg 51%
    12:00 +7°C° 0 mm 3 mps 734 mmHg 48%
    13:00 +8°C° 0 mm 3 mps 733 mmHg 47%
    14:00 +8°C° 0 mm 3 mps 733 mmHg 47%
    15:00 +8°C° 0 mm 4 mps 733 mmHg 46%
    16:00 +8°C° 0 mm 3 mps 733 mmHg 51%
    17:00 +7°C° 0 mm 3 mps 733 mmHg 57%
    18:00 +7°C° 0 mm 2 mps 733 mmHg 62%
    19:00 +6°C° 0 mm 2 mps 734 mmHg 66%
    20:00 +6°C° 0 mm 1 mps 734 mmHg 70%
    21:00 +4°C° 0 mm 0 mps 734 mmHg 74%
    22:00 +5°C° 0 mm 1 mps 734 mmHg 75%
    23:00 +4°C° 0 mm 1 mps 733 mmHg 75%

    26 March, Tuesday

    Time Temperature Precipitation Wind Pressure Humidity
    00:00 +4°C° 0 mm 1 mps 733 mmHg 76%
    01:00 +4°C° 0 mm 1 mps 733 mmHg 77%
    02:00 +3°C° 0 mm 1 mps 733 mmHg 77%
    03:00 +3°C° 0 mm 1 mps 732 mmHg 77%
    04:00 +3°C° 0 mm 1 mps 732 mmHg 77%
    05:00 +3°C° 0 mm 1 mps 732 mmHg 78%
    06:00 +2°C° 0 mm 1 mps 732 mmHg 78%
    07:00 +3°C° 0 mm 2 mps 732 mmHg 71%
    08:00 +4°C° 0 mm 3 mps 732 mmHg 64%
    09:00 +5°C° 0 mm 5 mps 731 mmHg 57%
    10:00 +6°C° 0 mm 5 mps 731 mmHg 54%
    11:00 +7°C° 0 mm 5 mps 730 mmHg 52%
    12:00 +9°C° 0 mm 6 mps 730 mmHg 49%
    13:00 +9°C° 0 mm 6 mps 730 mmHg 48%
    14:00 +10°C° 0 mm 6 mps 729 mmHg 48%
    15:00 +10°C° 0 mm 5 mps 729 mmHg 47%
    16:00 +10°C° 0 mm 5 mps 729 mmHg 51%
    17:00 +10°C° 0 mm 4 mps 729 mmHg 54%
    18:00 +8°C° 0 mm 4 mps 729 mmHg 57%
    19:00 +7°C° 0 mm 4 mps 730 mmHg 60%
    20:00 +6°C° 0 mm 4 mps 730 mmHg 63%
    21:00 +5°C° 0 mm 4 mps 730 mmHg 67%
    22:00 +5°C° 0 mm 4 mps 730 mmHg 69%
    23:00 +4°C° 0 mm 3 mps 730 mmHg 71%
    Show more